Santa Monica, CA

3:36 AM PDT on April 25, 2017 (GMT -0700)
Santa Monica Municipal

Weather History for KSMO - October, 2012

Change the Weather History Date:

Tuesday, October 9, 2012

  Actual Average Record
Temperature  
Mean Temperature 66 °F -  
Max Temperature 73 °F 78 °F 102 °F (1976)
Min Temperature 60 °F 59 °F 47 °F (1949)
Cooling Degree Days 1    
Growing Degree Days 16 (Base 50)    
Moisture  
Dew Point 56 °F    
Average Humidity 68    
Maximum Humidity 83    
Minimum Humidity 55    
Precipitation  
Precipitation 0.00 in - - ()
Sea Level Pressure  
Sea Level Pressure 29.96 in    
Wind  
Wind Speed 3 mph (WSW)    
Max Wind Speed 9 mph    
Max Gust Speed -    
Visibility 10 miles    
Events      
Averages and records for this station are not official NWS values.
T = Trace of Precipitation, MM = Missing Value Source: NWS Daily Summary

Daily Weather History Graph

Daily Weather History Graph

Search for Another Location

Airport or City:

Trip Planner

Search our weather history database for the weather conditions in past years. The results will help you decide how hot, cold, wet, or windy it might be!

Date:

Astronomy

Oct. 09, 2012 Rise Set
Actual Time 6:54 AM PDT 6:26 PM PDT
Civil Twilight 6:29 AM PDT 6:51 PM PDT
Nautical Twilight 6:00 AM PDT 7:20 PM PDT
Astronomical Twilight 5:31 AM PDT 7:49 PM PDT
Moon 12:51 AM PDT (10/9) 2:42 PM PDT (10/9)
Length of Visible Light 12h 22m
Length of Day
11h 31m
Waning Crescent, 35% of the Moon is Illuminated
Oct 9
Waning Crescent
Oct 15
New
Oct 21
First Quarter
Oct 29
Full
Nov 6
Last Quarter

Hourly Weather History & Observations

Time (PDT) Temp. Dew Point Humidity Pressure Visibility Wind Dir Wind Speed Gust Speed Precip Events Conditions
1:51 AM 61.0 °F 55.0 °F 81% 29.96 in 10.0 mi NE 3.5 mph - N/A   Clear
2:51 AM 61.0 °F 55.0 °F 81% 29.96 in 10.0 mi Calm Calm - N/A   Clear
3:51 AM 61.0 °F 55.0 °F 81% 29.94 in 10.0 mi Calm Calm - N/A   Clear
5:51 AM 61.0 °F 55.9 °F 83% 29.96 in 10.0 mi NE 3.5 mph - N/A   Clear
6:40 AM 60.8 °F 55.4 °F 82% 29.98 in 10.0 mi Calm Calm - N/A   Mostly Cloudy
7:51 AM 64.0 °F 57.0 °F 78% 29.99 in 10.0 mi Calm Calm - N/A   Mostly Cloudy
8:51 AM 66.9 °F 55.9 °F 68% 29.99 in 10.0 mi East 5.8 mph - N/A   Scattered Clouds
9:51 AM 69.1 °F 55.0 °F 61% 29.99 in 10.0 mi Calm Calm - N/A   Mostly Cloudy
10:37 AM 71.6 °F 55.4 °F 57% 30.00 in 10.0 mi Calm Calm - N/A   Scattered Clouds
10:51 AM 72.0 °F 55.0 °F 55% 29.99 in 10.0 mi Calm Calm - N/A   Scattered Clouds
11:51 AM 72.0 °F 55.0 °F 55% 29.98 in 10.0 mi SW 9.2 mph - N/A   Scattered Clouds
12:51 PM 72.0 °F 55.0 °F 55% 29.96 in 10.0 mi SW 9.2 mph - N/A   Clear
1:51 PM 71.1 °F 55.0 °F 57% 29.95 in 10.0 mi WSW 8.1 mph - N/A   Clear
2:51 PM 72.0 °F 55.0 °F 55% 29.94 in 10.0 mi SW 9.2 mph - N/A   Clear
3:51 PM 70.0 °F 55.9 °F 61% 29.93 in 10.0 mi SW 6.9 mph - N/A   Clear
4:51 PM 68.0 °F 55.9 °F 65% 29.93 in 10.0 mi WSW 9.2 mph - N/A   Clear
5:51 PM 68.0 °F 55.0 °F 63% 29.93 in 10.0 mi WSW 5.8 mph - N/A   Clear
6:51 PM 68.0 °F 55.0 °F 63% 29.94 in 10.0 mi WSW 8.1 mph - N/A   Clear
7:51 PM 66.9 °F 57.9 °F 73% 29.94 in 10.0 mi West 4.6 mph - N/A   Clear
8:51 PM 66.9 °F 57.9 °F 73% 29.95 in 10.0 mi Calm Calm - N/A   Clear
9:51 PM 66.0 °F 57.0 °F 73% 29.96 in 10.0 mi Calm Calm - N/A   Clear
10:51 PM 64.9 °F 57.0 °F 75% 29.97 in 10.0 mi Calm Calm - N/A   Clear
11:51 PM 63.0 °F 53.1 °F 70% 29.96 in 10.0 mi Calm Calm - N/A   Clear